Starlink 3964

operational
NORAD ID: 52536 Int'l Des: 2022-051 Owner: SPXS Country: US Constellation: starlink
LEOCIRCULAR

About Starlink 3964

Description loading...

Live Position

Loading 3D Globe...

Upcoming Passes

Altitude History

Altitude vs Time

uPlot chart will show altitude changes over time

Two-Line Element Set

1 52536U 22051D 25302.48482774 .00000166 00000-0 28530-4 0 9992
2 52536 53.2183 358.1238 0001301 85.1284 274.9857 15.08845373191634
Epoch: Oct 29, 2025 • Age: 15 hours

Current Status

Altitude 542.2 km
Velocity 7.60 km/s
Sub-Earth Point 38.25°N, 39.85°W
Launch Date May 13, 2022
Age 3.4 years
Type internet

Technical Details

Classification Payload
Mass 297.00 kg
Dry Mass 275.00 kg
Total Mass 297.00 kg
Length 0.20 m
Diameter 2.80 m
Span 9.00 m
Shape Box + pan
Manufacturer SPXS
Bus Type Starlink
Phase Status In Orbit
Owner/State SPXS/US

Large Constellations

Loading constellations...